Zurück zum Katalog

CZ-4 DEB

AktivPO
NORAD 26151·DEBRIS·🇨🇳 China

Gestartet Oct 14, 1999 von Taiyuan Satellite Launch Center

Loading…

Nächste Überflüge (nächste 24 Stunden)

TLE

AktuellSource: Space-Track

Epoche: Sep 14, 2026, 06:55 UTC

1 26151U 99057AM  26257.28883947  .00000717  00000-0  70919-3 0  9990
2 26151  99.4514 183.9559 0613685 310.4452 206.9205 13.19381539270597

Verfolge CZ-4 DEB in Echtzeit mit AllMySat

Download on the App Store